Regional Weather Roundup
Issued by NWS

Home | Current Version | Previous Version | Text Only | Print | Product List | Glossary On
Versions: 1 2 3 4 5 6 7 8 9 10 11 12 13 14 15 16 17 18 19 20 21 22 23 24 25 26 27 28 29 30 31 32 33 34 35 36 37 38 39 40 41 42 43 44 45 46 47 48 49
000
ASUS45 KSLC 291010
RWRUT

UTAH REGIONAL WEATHER ROUNDUP
NATIONAL WEATHER SERVICE SALT LAKE CITY UT
400 AM MDT SUN MAR 29 2015

UTZ001>011-023>025-291100-

NORTHERN UTAH

CITY           SKY/WX    TMP DP  RH WIND       PRES   REMARKS
BRIGHAM CITY   CLEAR     40  22  48 CALM      30.28S
HILL AFB       NOT AVBL
LOGAN          CLEAR     32  24  72 NW5       30.29F WCI  27
OGDEN          CLEAR     40  24  53 CALM      30.27S
PROVO AIRPORT  CLEAR     45  27  49 N7        30.26F
SALT LAKE CITY CLEAR     42  28  57 W5        30.27F
VERNAL         CLEAR     41   8  25 SW8       30.19S
WENDOVER       PTCLDY    46  23  39 NE8       30.31R
HEBER CITY     CLEAR     30  21  69 CALM      30.27R
WEST JORDAN    CLEAR     41  19  42 NW8       30.28S

$$

UTZ012>022-026-027-291100-

SOUTHERN/CENTRAL UTAH

CITY           SKY/WX    TMP DP  RH WIND       PRES   REMARKS
BLANDING       CLEAR     48  22  35 N8        30.24F
BRYCE CANYON   CLEAR     30  24  78 W6        30.33S WCI  24
CEDAR CITY     CLEAR     42  24  49 SE5       30.26F
DELTA          CLEAR     43  10  26 NW10      30.26F
HANKSVILLE     PTCLDY    45  21  39 CALM      30.17S
MILFORD        CLEAR     40  19  43 N7        30.26F
MOAB/CYNLANDS  CLEAR     53  19  26 E5        30.13R
PRICE          CLEAR     44  16  32 NE8       30.21F
ST GEORGE      SUNNY     55  23  28 SE8       30.13S
KANAB          CLEAR     37  23  56 NE6       30.24S WCI  33

$$

REGIONAL REPORTS     COLORADO/ARIZONA

CITY           SKY/WX    TMP DP  RH WIND       PRES   REMARKS
CRAIG, CO      CLEAR     32  20  61 W6        30.27R WCI  26
GRAND JUNCTION MOCLDY    50  20  30 W3        30.14S
RIFLE          CLEAR     46  18  32 S8        30.19R
MONTROSE       CLOUDY    49  26  41 S6        30.22R
CORTEZ         CLEAR     35  20  54 E3        30.20R
PAGE, AZ       CLEAR     57  25  29 CALM      30.14S
GRAND CANYON   CLEAR     29  19  66 CALM      30.29F
KINGMAN        CLEAR     55  20  25 SE12      30.10F
FLAGSTAFF      CLEAR     39  20  46 W5        30.30F

$$

REGIONAL REPORTS    NEVADA/IDAHO/WYOMING

CITY           SKY/WX    TMP DP  RH WIND       PRES   REMARKS
LAS VEGAS, NV  CLEAR     67  21  17 SW6       29.98F
ELY            PTCLDY    33  12  41 S8        30.33S WCI  26
ELKO           MOCLDY    26  14  60 CALM      30.32F
POCATELLO, ID  CLEAR     39  20  46 SW13      30.32F WCI  31
BURLEY         CLEAR     35  21  56 CALM      30.32S
EVANSTON, WY   CLEAR     35  17  47 S5        30.30F WCI  31
ROCK SPRINGS   PTCLDY    35  17  47 NW7       30.29R WCI  29

$$


USA.gov is the U.S. government's official web portal to all federal, state and local government web resources and services.